Time,TemperatureF,DewpointF,PressureIn,WindDirection,WindDirectionDegrees,WindSpeedMPH,WindSpeedGustMPH,Humidity,HourlyPrecipIn,Conditions,Clouds,dailyrainin,SoftwareType,DateUTC
2013-01-05 00:00:00,7.3,-14.6,28.91,NW,306,0.0,0.0,35,0.00,,,0.00,VWS V13.01,2013-01-05 06:00:00,
2013-01-05 00:05:00,8.1,-13.9,28.91,NW,306,0.0,0.0,35,0.00,,,0.00,VWS V13.01,2013-01-05 06:05:00,
2013-01-05 00:10:00,9.3,-12.8,28.94,NW,306,0.0,0.0,35,0.00,,,0.00,VWS V13.01,2013-01-05 06:10:00,
2013-01-05 00:15:00,10.0,-12.1,28.94,NW,306,0.0,0.0,35,0.00,,,0.00,VWS V13.01,2013-01-05 06:15:00,
2013-01-05 00:20:00,10.0,-12.1,28.94,NW,306,0.0,0.0,35,0.00,,,0.00,VWS V13.01,2013-01-05 06:20:00,
2013-01-05 00:25:00,9.3,-12.8,28.91,NW,306,0.0,0.0,35,0.00,,,0.00,VWS V13.01,2013-01-05 06:25:00,
2013-01-05 00:31:00,9.9,-12.3,28.91,NW,306,0.0,0.0,35,0.00,,,0.00,VWS V13.01,2013-01-05 06:31:00,
2013-01-05 00:36:00,10.4,-11.8,28.91,NW,306,0.0,0.0,35,0.00,,,0.00,VWS V13.01,2013-01-05 06:36:00,
2013-01-05 00:41:00,10.6,-11.7,28.91,NW,306,0.0,0.0,35,0.00,,,0.00,VWS V13.01,2013-01-05 06:41:00,
2013-01-05 00:46:00,10.2,-12.0,28.91,NW,306,0.0,0.0,35,0.00,,,0.00,VWS V13.01,2013-01-05 06:46:00,
2013-01-05 00:51:00,10.0,-12.1,28.91,NW,306,0.0,0.0,35,0.00,,,0.00,VWS V13.01,2013-01-05 06:51:00,
2013-01-05 00:55:00,9.7,-12.5,28.91,NW,306,0.0,0.0,35,0.00,,,0.00,VWS V13.01,2013-01-05 06:55:00,
2013-01-05 01:00:00,9.0,-13.1,28.91,NW,306,0.0,0.0,35,0.00,,,0.00,VWS V13.01,2013-01-05 07:00:00,
2013-01-05 01:05:00,9.1,-12.9,28.91,NW,306,0.0,0.0,35,0.00,,,0.00,VWS V13.01,2013-01-05 07:05:00,
2013-01-05 01:10:00,9.9,-12.3,28.91,NW,306,0.0,0.0,35,0.00,,,0.00,VWS V13.01,2013-01-05 07:10:00,
2013-01-05 01:16:00,11.3,-11.0,28.91,West,280,2.2,2.2,35,0.00,,,0.00,VWS V13.01,2013-01-05 07:16:00,
2013-01-05 01:21:00,10.8,-11.5,28.91,West,278,3.1,3.1,35,0.00,,,0.00,VWS V13.01,2013-01-05 07:21:00,
2013-01-05 01:26:00,10.4,-11.8,28.91,West,271,0.0,3.1,35,0.00,,,0.00,VWS V13.01,2013-01-05 07:26:00,
2013-01-05 01:31:00,9.9,-12.3,28.91,West,274,0.0,0.0,35,0.00,,,0.00,VWS V13.01,2013-01-05 07:31:00,
2013-01-05 01:36:00,9.7,-12.5,28.91,West,274,0.0,0.0,35,0.00,,,0.00,VWS V13.01,2013-01-05 07:36:00,
2013-01-05 01:41:00,10.9,-11.3,28.91,West,270,0.0,0.0,35,0.00,,,0.00,VWS V13.01,2013-01-05 07:41:00,
2013-01-05 01:46:00,10.6,-11.7,28.91,WSW,258,2.7,2.7,35,0.00,,,0.00,VWS V13.01,2013-01-05 07:46:00,
2013-01-05 01:51:00,9.5,-12.6,28.91,WNW,299,2.2,2.2,35,0.00,,,0.00,VWS V13.01,2013-01-05 07:51:00,
2013-01-05 01:56:00,9.7,-12.5,28.91,WNW,298,3.1,3.1,35,0.00,,,0.00,VWS V13.01,2013-01-05 07:56:00,
2013-01-05 02:01:00,10.9,-11.3,28.91,West,268,0.0,0.0,35,0.00,,,0.00,VWS V13.01,2013-01-05 08:01:00,
2013-01-05 02:06:00,10.9,-11.3,28.91,WSW,247,0.0,0.0,35,0.00,,,0.00,VWS V13.01,2013-01-05 08:06:00,
2013-01-05 02:11:00,10.9,-11.3,28.91,WSW,251,0.0,0.0,35,0.00,,,0.00,VWS V13.01,2013-01-05 08:11:00,
2013-01-05 02:16:00,10.9,-11.3,28.91,WSW,251,0.0,0.0,35,0.00,,,0.00,VWS V13.01,2013-01-05 08:16:00,
2013-01-05 02:21:00,11.1,-11.2,28.91,West,261,0.0,0.0,35,0.00,,,0.00,VWS V13.01,2013-01-05 08:21:00,
2013-01-05 02:26:00,12.2,-10.2,28.91,West,271,3.6,3.6,35,0.00,,,0.00,VWS V13.01,2013-01-05 08:26:00,
2013-01-05 02:31:00,12.2,-10.2,28.91,West,277,3.6,3.6,35,0.00,,,0.00,VWS V13.01,2013-01-05 08:31:00,
2013-01-05 02:36:00,12.2,-10.2,28.91,West,271,2.7,2.7,35,0.00,,,0.00,VWS V13.01,2013-01-05 08:36:00,
2013-01-05 02:41:00,12.2,-10.2,28.88,West,268,2.7,2.7,35,0.00,,,0.00,VWS V13.01,2013-01-05 08:41:00,
2013-01-05 02:46:00,12.0,-10.4,28.88,West,274,0.0,2.2,35,0.00,,,0.00,VWS V13.01,2013-01-05 08:46:00,
2013-01-05 02:51:00,11.8,-10.5,28.88,West,280,0.0,2.2,35,0.00,,,0.00,VWS V13.01,2013-01-05 08:51:00,
2013-01-05 02:56:00,11.5,-10.9,28.88,West,265,0.0,0.0,35,0.00,,,0.00,VWS V13.01,2013-01-05 08:56:00,
2013-01-05 03:01:00,11.3,-11.0,28.88,West,265,0.0,0.0,35,0.00,,,0.00,VWS V13.01,2013-01-05 09:01:00,
2013-01-05 03:06:00,12.0,-10.4,28.88,West,273,3.1,3.1,35,0.00,,,0.00,VWS V13.01,2013-01-05 09:06:00,
2013-01-05 03:11:00,11.5,-10.9,28.88,West,271,0.0,0.0,35,0.00,,,0.00,VWS V13.01,2013-01-05 09:11:00,
2013-01-05 03:16:00,11.1,-11.2,28.88,WSW,257,0.0,0.0,35,0.00,,,0.00,VWS V13.01,2013-01-05 09:16:00,
2013-01-05 03:21:00,10.8,-11.5,28.88,WSW,257,0.0,0.0,35,0.00,,,0.00,VWS V13.01,2013-01-05 09:21:00,
2013-01-05 03:26:00,11.1,-11.2,28.88,SSW,208,2.2,2.2,35,0.00,,,0.00,VWS V13.01,2013-01-05 09:26:00,
2013-01-05 03:31:00,10.6,-11.7,28.88,SSW,208,0.0,0.0,35,0.00,,,0.00,VWS V13.01,2013-01-05 09:31:00,
2013-01-05 03:36:00,9.9,-12.3,28.88,SSW,208,0.0,0.0,35,0.00,,,0.00,VWS V13.01,2013-01-05 09:36:00,
2013-01-05 03:41:00,9.5,-12.6,28.88,SSW,205,0.0,0.0,35,0.00,,,0.00,VWS V13.01,2013-01-05 09:41:00,
2013-01-05 03:46:00,9.7,-12.5,28.88,South,186,0.0,0.0,35,0.00,,,0.00,VWS V13.01,2013-01-05 09:46:00,
2013-01-05 03:51:00,9.1,-12.9,28.88,South,186,0.0,0.0,35,0.00,,,0.00,VWS V13.01,2013-01-05 09:51:00,
2013-01-05 03:56:00,8.6,-13.4,28.85,South,186,0.0,0.0,35,0.00,,,0.00,VWS V13.01,2013-01-05 09:56:00,
2013-01-05 04:01:00,9.5,-12.6,28.85,South,188,0.0,0.0,35,0.00,,,0.00,VWS V13.01,2013-01-05 10:01:00,
2013-01-05 04:06:00,9.5,-12.6,28.85,South,188,0.0,0.0,35,0.00,,,0.00,VWS V13.01,2013-01-05 10:06:00,
2013-01-05 04:11:00,9.7,-12.5,28.85,South,188,0.0,0.0,35,0.00,,,0.00,VWS V13.01,2013-01-05 10:11:00,
2013-01-05 04:16:00,9.1,-12.9,28.85,South,188,0.0,0.0,35,0.00,,,0.00,VWS V13.01,2013-01-05 10:16:00,
2013-01-05 04:21:00,8.4,-13.6,28.85,South,188,0.0,0.0,35,0.00,,,0.00,VWS V13.01,2013-01-05 10:21:00,
2013-01-05 04:26:00,7.7,-14.2,28.85,South,188,0.0,0.0,35,0.00,,,0.00,VWS V13.01,2013-01-05 10:26:00,
2013-01-05 04:31:00,8.2,-13.8,28.85,South,188,0.0,0.0,35,0.00,,,0.00,VWS V13.01,2013-01-05 10:31:00,
2013-01-05 04:36:00,8.4,-13.6,28.85,South,188,0.0,0.0,35,0.00,,,0.00,VWS V13.01,2013-01-05 10:36:00,
2013-01-05 04:41:00,10.0,-12.1,28.85,West,272,0.0,0.0,35,0.00,,,0.00,VWS V13.01,2013-01-05 10:41:00,
2013-01-05 04:46:00,9.5,-12.6,28.85,WNW,284,0.0,0.0,35,0.00,,,0.00,VWS V13.01,2013-01-05 10:46:00,
2013-01-05 04:51:00,8.6,-13.4,28.85,WNW,287,2.7,2.7,35,0.00,,,0.00,VWS V13.01,2013-01-05 10:51:00,
2013-01-05 04:56:00,9.0,-13.1,28.85,WSW,258,3.6,3.6,35,0.00,,,0.00,VWS V13.01,2013-01-05 10:56:00,
2013-01-05 05:01:00,8.1,-13.9,28.85,West,265,0.0,0.0,35,0.00,,,0.00,VWS V13.01,2013-01-05 11:01:00,
2013-01-05 05:06:00,8.1,-13.9,28.85,West,270,0.0,0.0,35,0.00,,,0.00,VWS V13.01,2013-01-05 11:06:00,
2013-01-05 05:11:00,8.6,-13.4,28.82,WNW,283,2.7,3.1,35,0.00,,,0.00,VWS V13.01,2013-01-05 11:11:00,
2013-01-05 05:16:00,8.4,-13.6,28.82,WNW,290,2.7,3.1,35,0.00,,,0.00,VWS V13.01,2013-01-05 11:16:00,
2013-01-05 05:21:00,8.8,-13.3,28.82,WNW,283,2.7,3.1,35,0.00,,,0.00,VWS V13.01,2013-01-05 11:21:00,
2013-01-05 05:26:00,8.8,-13.3,28.82,West,278,2.7,2.7,35,0.00,,,0.00,VWS V13.01,2013-01-05 11:26:00,
2013-01-05 05:31:00,9.5,-12.6,28.82,West,271,4.0,4.0,35,0.00,,,0.00,VWS V13.01,2013-01-05 11:31:00,
2013-01-05 05:36:00,9.3,-12.8,28.82,West,278,4.9,4.9,35,0.00,,,0.00,VWS V13.01,2013-01-05 11:36:00,
2013-01-05 05:41:00,9.3,-12.8,28.82,WNW,289,3.6,3.6,35,0.00,,,0.00,VWS V13.01,2013-01-05 11:41:00,
2013-01-05 05:46:00,9.7,-12.5,28.82,WNW,283,3.1,4.0,35,0.00,,,0.00,VWS V13.01,2013-01-05 11:46:00,
2013-01-05 05:51:00,9.7,-12.5,28.82,WNW,290,2.7,2.7,35,0.00,,,0.00,VWS V13.01,2013-01-05 11:51:00,
2013-01-05 05:56:00,9.7,-12.5,28.82,WNW,296,3.1,3.1,35,0.00,,,0.00,VWS V13.01,2013-01-05 11:56:00,
2013-01-05 06:01:00,9.1,-12.9,28.82,NW,311,2.7,2.7,35,0.00,,,0.00,VWS V13.01,2013-01-05 12:01:00,
2013-01-05 06:06:00,8.8,-13.3,28.82,WNW,300,0.0,0.0,35,0.00,,,0.00,VWS V13.01,2013-01-05 12:06:00,
2013-01-05 06:11:00,8.4,-13.6,28.82,NW,313,0.0,0.0,35,0.00,,,0.00,VWS V13.01,2013-01-05 12:11:00,
2013-01-05 06:16:00,8.1,-13.9,28.82,NW,312,0.0,0.0,35,0.00,,,0.00,VWS V13.01,2013-01-05 12:16:00,
2013-01-05 06:21:00,8.2,-13.8,28.82,NW,312,0.0,2.2,35,0.00,,,0.00,VWS V13.01,2013-01-05 12:21:00,
2013-01-05 06:26:00,7.9,-14.1,28.82,NW,314,0.0,0.0,35,0.00,,,0.00,VWS V13.01,2013-01-05 12:26:00,
2013-01-05 06:31:00,7.5,-14.4,28.82,NW,314,0.0,0.0,35,0.00,,,0.00,VWS V13.01,2013-01-05 12:31:00,
2013-01-05 06:36:00,7.3,-14.6,28.82,NW,313,0.0,0.0,35,0.00,,,0.00,VWS V13.01,2013-01-05 12:36:00,
2013-01-05 06:41:00,8.4,-13.6,28.82,NW,310,3.1,3.6,35,0.00,,,0.00,VWS V13.01,2013-01-05 12:41:00,
2013-01-05 06:46:00,8.6,-13.4,28.82,NW,310,2.2,3.1,35,0.00,,,0.00,VWS V13.01,2013-01-05 12:46:00,
2013-01-05 06:51:00,8.8,-13.3,28.82,WNW,285,2.2,2.2,35,0.00,,,0.00,VWS V13.01,2013-01-05 12:51:00,
2013-01-05 06:56:00,9.3,-12.8,28.82,WNW,291,4.0,4.0,35,0.00,,,0.00,VWS V13.01,2013-01-05 12:56:00,
2013-01-05 07:01:00,9.1,-12.9,28.82,West,277,2.7,3.6,35,0.00,,,0.00,VWS V13.01,2013-01-05 13:01:00,
2013-01-05 07:06:00,8.8,-13.3,28.82,WNW,286,0.0,2.7,35,0.00,,,0.00,VWS V13.01,2013-01-05 13:06:00,
2013-01-05 07:11:00,8.1,-13.9,28.82,WNW,303,0.0,0.0,35,0.00,,,0.00,VWS V13.01,2013-01-05 13:11:00,
2013-01-05 07:16:00,8.8,-13.3,28.82,WNW,295,2.7,3.6,35,0.00,,,0.00,VWS V13.01,2013-01-05 13:16:00,
2013-01-05 07:21:00,8.8,-13.3,28.82,West,277,2.2,3.6,35,0.00,,,0.00,VWS V13.01,2013-01-05 13:21:00,
2013-01-05 07:26:00,8.6,-13.4,28.82,West,277,3.1,3.1,35,0.00,,,0.00,VWS V13.01,2013-01-05 13:26:00,
2013-01-05 07:31:00,8.6,-13.4,28.82,West,275,0.0,2.7,35,0.00,,,0.00,VWS V13.01,2013-01-05 13:31:00,
2013-01-05 07:36:00,8.8,-13.3,28.82,WNW,285,2.7,3.6,35,0.00,,,0.00,VWS V13.01,2013-01-05 13:36:00,
2013-01-05 07:41:00,8.6,-13.4,28.79,NW,311,3.6,4.0,35,0.00,,,0.00,VWS V13.01,2013-01-05 13:41:00,
2013-01-05 07:46:00,7.9,-14.1,28.79,NW,305,2.2,2.7,35,0.00,,,0.00,VWS V13.01,2013-01-05 13:46:00,
2013-01-05 07:51:00,8.1,-13.9,28.79,NW,314,2.7,2.7,35,0.00,,,0.00,VWS V13.01,2013-01-05 13:51:00,
2013-01-05 07:56:00,7.5,-14.4,28.79,WNW,302,0.0,0.0,35,0.00,,,0.00,VWS V13.01,2013-01-05 13:56:00,
2013-01-05 08:01:00,7.0,-14.9,28.79,NW,317,2.7,2.7,35,0.00,,,0.00,VWS V13.01,2013-01-05 14:01:00,
2013-01-05 08:06:00,8.8,-13.3,28.79,NW,310,2.2,2.2,35,0.00,,,0.00,VWS V13.01,2013-01-05 14:06:00,
2013-01-05 08:11:00,8.6,-13.4,28.79,NW,321,0.0,2.2,35,0.00,,,0.00,VWS V13.01,2013-01-05 14:11:00,
2013-01-05 08:16:00,9.1,-12.9,28.79,NNW,341,0.0,0.0,35,0.00,,,0.00,VWS V13.01,2013-01-05 14:16:00,
2013-01-05 08:21:00,9.9,-12.3,28.79,NNW,341,0.0,0.0,35,0.00,,,0.00,VWS V13.01,2013-01-05 14:21:00,
2013-01-05 08:26:00,11.7,-10.7,28.79,NNW,341,0.0,0.0,35,0.00,,,0.00,VWS V13.01,2013-01-05 14:26:00,
2013-01-05 08:31:00,13.3,-9.2,28.79,NNW,327,0.0,0.0,35,0.00,,,0.00,VWS V13.01,2013-01-05 14:31:00,
2013-01-05 08:36:00,14.5,-8.7,28.79,NNW,327,2.7,2.7,34,0.00,,,0.00,VWS V13.01,2013-01-05 14:36:00,
2013-01-05 08:41:00,14.5,-11.9,28.79,NW,311,2.7,3.6,29,0.00,,,0.00,VWS V13.01,2013-01-05 14:41:00,
2013-01-05 08:46:00,14.7,-11.8,28.79,NW,315,3.1,3.6,29,0.00,,,0.00,VWS V13.01,2013-01-05 14:46:00,
2013-01-05 08:51:00,15.3,-11.3,28.79,WNW,302,3.1,3.1,29,0.00,,,0.00,VWS V13.01,2013-01-05 14:51:00,
2013-01-05 08:56:00,14.9,-15.4,28.79,NW,317,3.1,3.1,24,0.00,,,0.00,VWS V13.01,2013-01-05 14:56:00,
2013-01-05 09:01:00,16.0,-12.8,28.79,NW,315,2.2,2.2,26,0.00,,,0.00,VWS V13.01,2013-01-05 15:01:00,
2013-01-05 09:06:00,17.1,-11.9,28.79,NNE,24,3.1,3.1,26,0.00,,,0.00,VWS V13.01,2013-01-05 15:06:00,
2013-01-05 09:11:00,18.1,-11.8,28.79,NW,324,2.7,2.7,25,0.00,,,0.00,VWS V13.01,2013-01-05 15:11:00,
2013-01-05 09:16:00,17.6,-15.7,28.79,NW,319,2.7,3.1,21,0.00,,,0.00,VWS V13.01,2013-01-05 15:16:00,
2013-01-05 09:21:00,18.3,-11.6,28.79,West,277,2.2,2.2,25,0.00,,,0.00,VWS V13.01,2013-01-05 15:21:00,
2013-01-05 09:26:00,18.1,-13.4,28.79,North,1,2.7,2.7,23,0.00,,,0.00,VWS V13.01,2013-01-05 15:26:00,
2013-01-05 09:31:00,20.3,-3.6,28.79,North,0,3.1,3.1,34,0.00,,,0.00,VWS V13.01,2013-01-05 15:31:00,
2013-01-05 09:36:00,19.9,-12.8,28.79,North,8,0.0,0.0,22,0.00,,,0.00,VWS V13.01,2013-01-05 15:36:00,
2013-01-05 09:41:00,22.6,-2.1,28.79,NNW,328,0.0,3.1,33,0.00,,,0.00,VWS V13.01,2013-01-05 15:41:00,
2013-01-05 09:46:00,22.3,-2.4,28.79,NNE,18,2.7,2.7,33,0.00,,,0.00,VWS V13.01,2013-01-05 15:46:00,
2013-01-05 09:51:00,23.4,-2.1,28.79,North,0,0.0,0.0,32,0.00,,,0.00,VWS V13.01,2013-01-05 15:51:00,
2013-01-05 09:56:00,23.9,0.2,28.79,NNE,12,2.7,3.6,35,0.00,,,0.00,VWS V13.01,2013-01-05 15:56:00,
2013-01-05 10:01:00,23.5,-2.0,28.79,North,10,2.2,2.7,32,0.00,,,0.00,VWS V13.01,2013-01-05 16:01:00,
2013-01-05 10:06:00,22.6,-10.5,28.79,North,9,3.1,3.1,22,0.00,,,0.00,VWS V13.01,2013-01-05 16:06:00,
2013-01-05 10:11:00,22.6,-7.9,28.79,NNE,13,4.9,4.9,25,0.00,,,0.00,VWS V13.01,2013-01-05 16:11:00,
2013-01-05 10:16:00,23.4,-2.1,28.79,North,6,2.7,3.1,32,0.00,,,0.00,VWS V13.01,2013-01-05 16:16:00,
2013-01-05 10:21:00,21.4,-16.6,28.79,NE,50,2.7,2.7,17,0.00,,,0.00,VWS V13.01,2013-01-05 16:21:00,
2013-01-05 10:26:00,23.9,-12.4,28.79,NNW,334,0.0,0.0,19,0.00,,,0.00,VWS V13.01,2013-01-05 16:26:00,
2013-01-05 10:31:00,24.1,-14.4,28.79,NNW,337,3.1,3.1,17,0.00,,,0.00,VWS V13.01,2013-01-05 16:31:00,
2013-01-05 10:36:00,22.3,-15.9,28.79,North,357,5.8,5.8,17,0.00,,,0.00,VWS V13.01,2013-01-05 16:36:00,
2013-01-05 10:41:00,22.8,-15.4,28.76,North,357,3.1,4.0,17,0.00,,,0.00,VWS V13.01,2013-01-05 16:41:00,
2013-01-05 10:46:00,24.8,-13.8,28.76,NNW,343,0.0,4.0,17,0.00,,,0.00,VWS V13.01,2013-01-05 16:46:00,
2013-01-05 10:51:00,25.2,-14.7,28.76,NW,320,2.7,3.1,16,0.00,,,0.00,VWS V13.01,2013-01-05 16:51:00,
2013-01-05 10:56:00,27.1,-13.1,28.79,NNW,345,0.0,0.0,16,0.00,,,0.00,VWS V13.01,2013-01-05 16:56:00,
2013-01-05 11:01:00,27.0,-13.2,28.79,NW,323,2.7,2.7,16,0.00,,,0.00,VWS V13.01,2013-01-05 17:01:00,
2013-01-05 11:06:00,24.3,-14.3,28.79,NE,45,2.2,3.1,17,0.00,,,0.00,VWS V13.01,2013-01-05 17:06:00,
2013-01-05 11:11:00,23.5,-14.9,28.76,ENE,67,5.4,5.4,17,0.00,,,0.00,VWS V13.01,2013-01-05 17:11:00,
2013-01-05 11:16:00,24.1,-14.4,28.76,East,87,3.1,3.1,17,0.00,,,0.00,VWS V13.01,2013-01-05 17:16:00,
2013-01-05 11:21:00,25.5,-14.4,28.76,SE,136,0.0,0.0,16,0.00,,,0.00,VWS V13.01,2013-01-05 17:21:00,
2013-01-05 11:26:00,26.2,-13.8,28.76,NE,37,0.0,3.6,16,0.00,,,0.00,VWS V13.01,2013-01-05 17:26:00,
2013-01-05 11:31:00,27.7,-12.6,28.76,NE,48,2.7,3.1,16,0.00,,,0.00,VWS V13.01,2013-01-05 17:31:00,
2013-01-05 11:36:00,28.6,-13.2,28.76,NE,51,0.0,0.0,15,0.00,,,0.00,VWS V13.01,2013-01-05 17:36:00,
2013-01-05 11:41:00,29.3,-12.6,28.76,North,353,0.0,0.0,15,0.00,,,0.00,VWS V13.01,2013-01-05 17:41:00,
2013-01-05 11:46:00,29.3,-12.6,28.76,NNW,334,0.0,0.0,15,0.00,,,0.00,VWS V13.01,2013-01-05 17:46:00,
2013-01-05 11:51:00,27.5,-12.8,28.76,NE,49,2.7,2.7,16,0.00,,,0.00,VWS V13.01,2013-01-05 17:51:00,
2013-01-05 11:56:00,27.5,-12.8,28.76,NNE,21,2.7,3.6,16,0.00,,,0.00,VWS V13.01,2013-01-05 17:56:00,
2013-01-05 12:01:00,28.8,-13.1,28.76,NNE,19,0.0,0.0,15,0.00,,,0.00,VWS V13.01,2013-01-05 18:01:00,
2013-01-05 12:06:00,30.9,-11.3,28.76,North,0,4.0,4.0,15,0.00,,,0.00,VWS V13.01,2013-01-05 18:06:00,
2013-01-05 12:11:00,32.0,-10.4,28.76,NNE,16,0.0,0.0,15,0.00,,,0.00,VWS V13.01,2013-01-05 18:11:00,
2013-01-05 12:16:00,29.5,-12.5,28.76,ENE,60,2.2,2.2,15,0.00,,,0.00,VWS V13.01,2013-01-05 18:16:00,
2013-01-05 12:21:00,31.3,-11.0,28.76,NW,319,0.0,0.0,15,0.00,,,0.00,VWS V13.01,2013-01-05 18:21:00,
2013-01-05 12:26:00,30.9,-11.3,28.76,East,84,2.7,4.0,15,0.00,,,0.00,VWS V13.01,2013-01-05 18:26:00,
2013-01-05 12:31:00,27.0,-13.2,28.76,NE,45,0.0,3.6,16,0.00,,,0.00,VWS V13.01,2013-01-05 18:31:00,
2013-01-05 12:36:00,32.0,-10.4,28.76,NW,320,0.0,0.0,15,0.00,,,0.00,VWS V13.01,2013-01-05 18:36:00,
2013-01-05 12:41:00,32.5,-10.0,28.73,NNW,335,2.7,2.7,15,0.00,,,0.00,VWS V13.01,2013-01-05 18:41:00,
2013-01-05 12:46:00,32.2,-10.3,28.73,NE,39,2.7,2.7,15,0.00,,,0.00,VWS V13.01,2013-01-05 18:46:00,
2013-01-05 12:51:00,32.9,-9.7,28.73,NNW,345,0.0,3.1,15,0.00,,,0.00,VWS V13.01,2013-01-05 18:51:00,
2013-01-05 12:56:00,32.2,-10.3,28.73,WNW,301,0.0,0.0,15,0.00,,,0.00,VWS V13.01,2013-01-05 18:56:00,
2013-01-05 13:01:00,32.5,-10.0,28.73,NW,311,2.7,2.7,15,0.00,,,0.00,VWS V13.01,2013-01-05 19:01:00,
2013-01-05 13:06:00,31.1,-11.1,28.73,NNW,333,0.0,0.0,15,0.00,,,0.00,VWS V13.01,2013-01-05 19:06:00,
2013-01-05 13:11:00,30.0,-12.0,28.73,NW,311,4.0,4.0,15,0.00,,,0.00,VWS V13.01,2013-01-05 19:11:00,
2013-01-05 13:16:00,29.5,-12.5,28.73,NW,305,3.1,3.6,15,0.00,,,0.00,VWS V13.01,2013-01-05 19:16:00,
2013-01-05 13:21:00,29.1,-12.8,28.73,WNW,302,3.1,3.1,15,0.00,,,0.00,VWS V13.01,2013-01-05 19:21:00,
2013-01-05 13:26:00,29.7,-12.3,28.73,NW,324,2.2,3.1,15,0.00,,,0.00,VWS V13.01,2013-01-05 19:26:00,
2013-01-05 13:31:00,29.5,-12.5,28.73,NW,324,2.7,3.1,15,0.00,,,0.00,VWS V13.01,2013-01-05 19:31:00,
2013-01-05 13:36:00,30.4,-11.7,28.73,NNE,16,0.0,0.0,15,0.00,,,0.00,VWS V13.01,2013-01-05 19:36:00,
2013-01-05 13:41:00,29.7,-12.3,28.73,NNW,341,2.2,2.7,15,0.00,,,0.00,VWS V13.01,2013-01-05 19:41:00,
2013-01-05 13:46:00,30.2,-11.9,28.73,NNW,339,2.7,2.7,15,0.00,,,0.00,VWS V13.01,2013-01-05 19:46:00,
2013-01-05 13:51:00,30.0,-12.0,28.73,NNW,327,0.0,0.0,15,0.00,,,0.00,VWS V13.01,2013-01-05 19:51:00,
2013-01-05 13:56:00,28.4,-12.1,28.70,NW,315,4.9,4.9,16,0.00,,,0.00,VWS V13.01,2013-01-05 19:56:00,
2013-01-05 14:01:00,28.2,-12.2,28.70,West,276,0.0,0.0,16,0.00,,,0.00,VWS V13.01,2013-01-05 20:01:00,
2013-01-05 14:06:00,26.4,-13.7,28.70,NW,326,2.7,2.7,16,0.00,,,0.00,VWS V13.01,2013-01-05 20:06:00,
2013-01-05 14:11:00,26.8,-13.4,28.70,ESE,102,0.0,0.0,16,0.00,,,0.00,VWS V13.01,2013-01-05 20:11:00,
2013-01-05 14:16:00,26.8,-13.4,28.70,NE,35,0.0,0.0,16,0.00,,,0.00,VWS V13.01,2013-01-05 20:16:00,
2013-01-05 14:21:00,26.6,-13.5,28.70,East,82,0.0,0.0,16,0.00,,,0.00,VWS V13.01,2013-01-05 20:21:00,
2013-01-05 14:26:00,25.9,-14.1,28.70,North,11,0.0,0.0,16,0.00,,,0.00,VWS V13.01,2013-01-05 20:26:00,
2013-01-05 14:31:00,26.6,-13.5,28.70,North,2,0.0,0.0,16,0.00,,,0.00,VWS V13.01,2013-01-05 20:31:00,
2013-01-05 14:36:00,26.4,-13.7,28.70,North,353,0.0,0.0,16,0.00,,,0.00,VWS V13.01,2013-01-05 20:36:00,
2013-01-05 14:41:00,25.9,-14.1,28.70,NW,306,3.1,3.1,16,0.00,,,0.00,VWS V13.01,2013-01-05 20:41:00,
2013-01-05 14:46:00,27.0,-13.2,28.70,NNE,19,0.0,0.0,16,0.00,,,0.00,VWS V13.01,2013-01-05 20:46:00,
2013-01-05 14:51:00,28.0,-12.4,28.70,North,353,3.1,3.1,16,0.00,,,0.00,VWS V13.01,2013-01-05 20:51:00,
2013-01-05 14:57:00,27.9,-12.5,28.70,NNW,335,2.7,2.7,16,0.00,,,0.00,VWS V13.01,2013-01-05 20:57:00,
2013-01-05 15:02:00,28.2,-12.2,28.70,NW,315,0.0,3.6,16,0.00,,,0.00,VWS V13.01,2013-01-05 21:02:00,
2013-01-05 15:07:00,28.9,-12.9,28.70,NE,34,0.0,0.0,15,0.00,,,0.00,VWS V13.01,2013-01-05 21:07:00,
2013-01-05 15:12:00,27.0,-13.2,28.73,NE,48,0.0,0.0,16,0.00,,,0.00,VWS V13.01,2013-01-05 21:12:00,
2013-01-05 15:17:00,25.2,-14.7,28.73,ENE,59,0.0,0.0,16,0.00,,,0.00,VWS V13.01,2013-01-05 21:17:00,
2013-01-05 15:22:00,24.4,-14.1,28.73,North,11,0.0,0.0,17,0.00,,,0.00,VWS V13.01,2013-01-05 21:22:00,
2013-01-05 15:27:00,24.4,-14.1,28.73,ENE,57,2.2,2.7,17,0.00,,,0.00,VWS V13.01,2013-01-05 21:27:00,
2013-01-05 15:32:00,24.4,-14.1,28.73,ESE,122,0.0,0.0,17,0.00,,,0.00,VWS V13.01,2013-01-05 21:32:00,
2013-01-05 15:37:00,24.6,-14.0,28.73,NNE,23,2.7,2.7,17,0.00,,,0.00,VWS V13.01,2013-01-05 21:37:00,
2013-01-05 15:42:00,24.4,-14.1,28.73,ESE,111,0.0,0.0,17,0.00,,,0.00,VWS V13.01,2013-01-05 21:42:00,
2013-01-05 15:47:00,24.8,-13.8,28.73,NE,41,0.0,0.0,17,0.00,,,0.00,VWS V13.01,2013-01-05 21:47:00,
2013-01-05 15:52:00,25.5,-14.4,28.73,ENE,75,0.0,0.0,16,0.00,,,0.00,VWS V13.01,2013-01-05 21:52:00,
2013-01-05 15:57:00,24.4,-14.1,28.73,North,9,3.1,3.1,17,0.00,,,0.00,VWS V13.01,2013-01-05 21:57:00,
2013-01-05 16:02:00,23.2,-15.2,28.73,NE,39,0.0,0.0,17,0.00,,,0.00,VWS V13.01,2013-01-05 22:02:00,
2013-01-05 16:07:00,22.1,-16.0,28.73,East,84,0.0,2.2,17,0.00,,,0.00,VWS V13.01,2013-01-05 22:07:00,
2013-01-05 16:12:00,21.6,-16.5,28.73,East,91,0.0,2.2,17,0.00,,,0.00,VWS V13.01,2013-01-05 22:12:00,
2013-01-05 16:17:00,21.2,-16.8,28.73,ESE,112,0.0,2.7,17,0.00,,,0.00,VWS V13.01,2013-01-05 22:17:00,
2013-01-05 16:22:00,21.0,-16.9,28.73,ESE,112,0.0,0.0,17,0.00,,,0.00,VWS V13.01,2013-01-05 22:22:00,
2013-01-05 16:27:00,20.5,-19.8,28.73,ESE,112,0.0,0.0,15,0.00,,,0.00,VWS V13.01,2013-01-05 22:27:00,
2013-01-05 16:32:00,20.1,-20.1,28.73,ESE,107,0.0,0.0,15,0.00,,,0.00,VWS V13.01,2013-01-05 22:32:00,
2013-01-05 16:37:00,19.4,-20.7,28.73,ESE,107,0.0,0.0,15,0.00,,,0.00,VWS V13.01,2013-01-05 22:37:00,
2013-01-05 16:42:00,18.7,-21.3,28.73,ESE,107,0.0,0.0,15,0.00,,,0.00,VWS V13.01,2013-01-05 22:42:00,
2013-01-05 16:47:00,18.3,-21.6,28.73,ESE,107,0.0,0.0,15,0.00,,,0.00,VWS V13.01,2013-01-05 22:47:00,
2013-01-05 16:52:00,18.0,-21.9,28.73,ESE,107,0.0,0.0,15,0.00,,,0.00,VWS V13.01,2013-01-05 22:52:00,
2013-01-05 16:57:00,17.6,-20.9,28.73,ESE,107,0.0,0.0,16,0.00,,,0.00,VWS V13.01,2013-01-05 22:57:00,
2013-01-05 17:02:00,17.2,-21.2,28.73,ESE,107,0.0,0.0,16,0.00,,,0.00,VWS V13.01,2013-01-05 23:02:00,
2013-01-05 17:07:00,17.6,-18.7,28.73,ESE,107,0.0,0.0,18,0.00,,,0.00,VWS V13.01,2013-01-05 23:07:00,
2013-01-05 17:12:00,17.8,-18.5,28.73,ESE,107,0.0,0.0,18,0.00,,,0.00,VWS V13.01,2013-01-05 23:12:00,
2013-01-05 17:17:00,18.3,-18.1,28.73,ESE,107,0.0,0.0,18,0.00,,,0.00,VWS V13.01,2013-01-05 23:17:00,
2013-01-05 17:22:00,18.5,-17.9,28.73,ESE,107,0.0,0.0,18,0.00,,,0.00,VWS V13.01,2013-01-05 23:22:00,
2013-01-05 17:27:00,18.5,-17.9,28.76,ESE,107,0.0,0.0,18,0.00,,,0.00,VWS V13.01,2013-01-05 23:27:00,
2013-01-05 17:32:00,18.7,-17.8,28.76,East,97,0.0,0.0,18,0.00,,,0.00,VWS V13.01,2013-01-05 23:32:00,
2013-01-05 17:37:00,18.9,-17.6,28.76,East,90,0.0,0.0,18,0.00,,,0.00,VWS V13.01,2013-01-05 23:37:00,
2013-01-05 17:42:00,19.0,-17.5,28.76,ESE,103,0.0,0.0,18,0.00,,,0.00,VWS V13.01,2013-01-05 23:42:00,
2013-01-05 17:47:00,19.0,-17.5,28.76,ESE,116,2.7,2.7,18,0.00,,,0.00,VWS V13.01,2013-01-05 23:47:00,
2013-01-05 17:52:00,18.5,-17.9,28.76,SE,124,0.0,0.0,18,0.00,,,0.00,VWS V13.01,2013-01-05 23:52:00,
2013-01-05 17:57:00,18.0,-18.4,28.79,ESE,105,3.1,3.1,18,0.00,,,0.00,VWS V13.01,2013-01-05 23:57:00,
2013-01-05 18:02:00,18.3,-18.1,28.79,ESE,123,2.2,2.2,18,0.00,,,0.00,VWS V13.01,2013-01-06 00:02:00,
2013-01-05 18:07:00,18.5,-17.9,28.79,East,101,2.7,3.1,18,0.00,,,0.00,VWS V13.01,2013-01-06 00:07:00,
2013-01-05 18:12:00,18.5,-17.9,28.79,SSE,168,2.7,6.3,18,0.00,,,0.00,VWS V13.01,2013-01-06 00:12:00,
2013-01-05 18:17:00,18.5,-17.9,28.79,ENE,72,3.1,3.1,18,0.00,,,0.00,VWS V13.01,2013-01-06 00:17:00,
2013-01-05 18:22:00,18.3,-18.1,28.79,SE,130,2.7,5.8,18,0.00,,,0.00,VWS V13.01,2013-01-06 00:22:00,
2013-01-05 18:27:00,18.1,-18.2,28.79,ESE,113,4.0,5.4,18,0.00,,,0.00,VWS V13.01,2013-01-06 00:27:00,
2013-01-05 18:32:00,18.1,-18.2,28.79,East,92,0.0,0.0,18,0.00,,,0.00,VWS V13.01,2013-01-06 00:32:00,
2013-01-05 18:37:00,17.8,-18.5,28.79,East,97,0.0,2.7,18,0.00,,,0.00,VWS V13.01,2013-01-06 00:37:00,
2013-01-05 18:42:00,17.8,-18.5,28.79,SSE,158,3.1,4.0,18,0.00,,,0.00,VWS V13.01,2013-01-06 00:42:00,
2013-01-05 18:47:00,18.0,-18.4,28.79,ESE,117,0.0,0.0,18,0.00,,,0.00,VWS V13.01,2013-01-06 00:47:00,
2013-01-05 18:52:00,17.8,-18.5,28.79,ESE,115,3.1,3.1,18,0.00,,,0.00,VWS V13.01,2013-01-06 00:52:00,
2013-01-05 18:57:00,17.8,-18.5,28.79,ESE,122,2.7,4.0,18,0.00,,,0.00,VWS V13.01,2013-01-06 00:57:00,
2013-01-05 19:02:00,17.8,-18.5,28.79,SSE,156,3.1,3.6,18,0.00,,,0.00,VWS V13.01,2013-01-06 01:02:00,
2013-01-05 19:07:00,17.8,-18.5,28.79,SE,130,2.7,5.8,18,0.00,,,0.00,VWS V13.01,2013-01-06 01:07:00,
2013-01-05 19:12:00,17.6,-18.7,28.82,East,99,4.9,5.4,18,0.00,,,0.00,VWS V13.01,2013-01-06 01:12:00,
2013-01-05 19:17:00,17.6,-18.7,28.82,East,84,4.0,4.0,18,0.00,,,0.00,VWS V13.01,2013-01-06 01:17:00,
2013-01-05 19:22:00,17.6,-18.7,28.82,East,91,2.7,2.7,18,0.00,,,0.00,VWS V13.01,2013-01-06 01:22:00,
2013-01-05 19:27:00,17.1,-19.1,28.82,SSE,166,4.9,6.3,18,0.00,,,0.00,VWS V13.01,2013-01-06 01:27:00,
2013-01-05 19:32:00,17.1,-19.1,28.82,SSE,150,2.7,2.7,18,0.00,,,0.00,VWS V13.01,2013-01-06 01:32:00,
2013-01-05 19:37:00,16.7,-19.4,28.82,East,85,2.7,2.7,18,0.00,,,0.00,VWS V13.01,2013-01-06 01:37:00,
2013-01-05 19:42:00,16.2,-19.9,28.82,ESE,115,0.0,0.0,18,0.00,,,0.00,VWS V13.01,2013-01-06 01:42:00,
2013-01-05 19:47:00,15.8,-19.1,28.82,ENE,61,0.0,2.7,19,0.00,,,0.00,VWS V13.01,2013-01-06 01:47:00,
2013-01-05 19:52:00,15.3,-19.6,28.82,ESE,108,0.0,0.0,19,0.00,,,0.00,VWS V13.01,2013-01-06 01:52:00,
2013-01-05 19:57:00,15.1,-19.8,28.82,East,84,0.0,2.7,19,0.00,,,0.00,VWS V13.01,2013-01-06 01:57:00,
2013-01-05 20:02:00,15.1,-17.8,28.82,ENE,74,0.0,0.0,21,0.00,,,0.00,VWS V13.01,2013-01-06 02:02:00,
2013-01-05 20:07:00,15.3,-17.7,28.82,ENE,76,0.0,0.0,21,0.00,,,0.00,VWS V13.01,2013-01-06 02:07:00,
2013-01-05 20:12:00,15.1,-17.8,28.82,ESE,110,0.0,0.0,21,0.00,,,0.00,VWS V13.01,2013-01-06 02:12:00,
2013-01-05 20:17:00,14.7,-18.1,28.82,ESE,113,0.0,0.0,21,0.00,,,0.00,VWS V13.01,2013-01-06 02:17:00,
2013-01-05 20:22:00,14.2,-18.6,28.82,ESE,113,0.0,0.0,21,0.00,,,0.00,VWS V13.01,2013-01-06 02:22:00,
2013-01-05 20:27:00,13.6,-18.1,28.82,ESE,102,0.0,0.0,22,0.00,,,0.00,VWS V13.01,2013-01-06 02:27:00,
2013-01-05 20:32:00,13.3,-18.4,28.82,ESE,108,0.0,0.0,22,0.00,,,0.00,VWS V13.01,2013-01-06 02:32:00,
2013-01-05 20:37:00,12.9,-18.8,28.82,East,99,0.0,0.0,22,0.00,,,0.00,VWS V13.01,2013-01-06 02:37:00,
2013-01-05 20:42:00,12.9,-18.8,28.82,East,97,0.0,0.0,22,0.00,,,0.00,VWS V13.01,2013-01-06 02:42:00,
2013-01-05 20:47:00,12.7,-18.9,28.82,East,97,0.0,0.0,22,0.00,,,0.00,VWS V13.01,2013-01-06 02:47:00,
2013-01-05 20:52:00,12.6,-19.1,28.82,ESE,109,0.0,0.0,22,0.00,,,0.00,VWS V13.01,2013-01-06 02:52:00,
2013-01-05 20:57:00,12.0,-19.5,28.82,ESE,109,0.0,0.0,22,0.00,,,0.00,VWS V13.01,2013-01-06 02:57:00,
2013-01-05 21:02:00,11.8,-19.7,28.82,ESE,109,0.0,0.0,22,0.00,,,0.00,VWS V13.01,2013-01-06 03:02:00,
2013-01-05 21:07:00,12.2,-19.4,28.82,ESE,109,0.0,0.0,22,0.00,,,0.00,VWS V13.01,2013-01-06 03:07:00,
2013-01-05 21:12:00,12.7,-18.9,28.82,ESE,109,0.0,0.0,22,0.00,,,0.00,VWS V13.01,2013-01-06 03:12:00,
2013-01-05 21:17:00,13.5,-18.3,28.82,East,95,0.0,0.0,22,0.00,,,0.00,VWS V13.01,2013-01-06 03:17:00,
2013-01-05 21:22:00,13.8,-18.0,28.82,ENE,78,3.1,3.1,22,0.00,,,0.00,VWS V13.01,2013-01-06 03:22:00,
2013-01-05 21:27:00,14.4,-8.9,28.85,ENE,75,2.2,3.6,34,0.00,,,0.00,VWS V13.01,2013-01-06 03:27:00,
2013-01-05 21:32:00,14.0,-12.4,28.85,East,88,0.0,2.2,29,0.00,,,0.00,VWS V13.01,2013-01-06 03:32:00,
2013-01-05 21:37:00,13.8,-12.6,28.85,East,84,0.0,4.0,29,0.00,,,0.00,VWS V13.01,2013-01-06 03:37:00,
2013-01-05 21:42:00,13.6,-12.7,28.85,ESE,103,3.1,3.1,29,0.00,,,0.00,VWS V13.01,2013-01-06 03:42:00,
2013-01-05 21:47:00,13.5,-12.9,28.85,ENE,65,3.6,3.6,29,0.00,,,0.00,VWS V13.01,2013-01-06 03:47:00,
2013-01-05 21:52:00,13.6,-12.7,28.85,East,90,0.0,0.0,29,0.00,,,0.00,VWS V13.01,2013-01-06 03:52:00,
2013-01-05 21:57:00,13.6,-12.7,28.85,East,79,3.6,5.8,29,0.00,,,0.00,VWS V13.01,2013-01-06 03:57:00,
2013-01-05 22:02:00,14.0,-13.8,28.85,NNE,30,3.6,3.6,27,0.00,,,0.00,VWS V13.01,2013-01-06 04:02:00,
2013-01-05 22:07:00,13.8,-16.3,28.85,ENE,62,0.0,0.0,24,0.00,,,0.00,VWS V13.01,2013-01-06 04:07:00,
2013-01-05 22:12:00,13.6,-16.4,28.85,East,91,3.1,3.1,24,0.00,,,0.00,VWS V13.01,2013-01-06 04:12:00,
2013-01-05 22:17:00,13.5,-16.6,28.85,NNE,26,3.1,3.1,24,0.00,,,0.00,VWS V13.01,2013-01-06 04:17:00,
2013-01-05 22:22:00,13.3,-16.8,28.85,ESE,111,0.0,0.0,24,0.00,,,0.00,VWS V13.01,2013-01-06 04:22:00,
2013-01-05 22:27:00,13.3,-16.8,28.88,ENE,71,0.0,0.0,24,0.00,,,0.00,VWS V13.01,2013-01-06 04:27:00,
2013-01-05 22:32:00,13.1,-16.9,28.88,ENE,74,0.0,2.7,24,0.00,,,0.00,VWS V13.01,2013-01-06 04:32:00,
2013-01-05 22:37:00,13.1,-16.9,28.88,ESE,107,2.2,3.1,24,0.00,,,0.00,VWS V13.01,2013-01-06 04:37:00,
2013-01-05 22:42:00,12.9,-17.1,28.88,East,93,0.0,0.0,24,0.00,,,0.00,VWS V13.01,2013-01-06 04:42:00,
2013-01-05 22:47:00,12.6,-17.4,28.88,NE,50,2.7,3.6,24,0.00,,,0.00,VWS V13.01,2013-01-06 04:47:00,
2013-01-05 22:52:00,12.0,-17.8,28.85,ENE,57,0.0,2.2,24,0.00,,,0.00,VWS V13.01,2013-01-06 04:52:00,
2013-01-05 22:57:00,11.1,-18.6,28.85,NE,56,0.0,0.0,24,0.00,,,0.00,VWS V13.01,2013-01-06 04:57:00,
2013-01-05 23:00:00,10.9,-18.8,28.85,NE,56,0.0,0.0,24,0.00,,,0.00,VWS V13.01,2013-01-06 05:00:00,
2013-01-05 23:03:00,10.9,-18.8,28.85,ENE,57,0.0,0.0,24,0.00,,,0.00,VWS V13.01,2013-01-06 05:03:00,
2013-01-05 23:06:00,10.6,-19.1,28.85,ENE,68,0.0,0.0,24,0.00,,,0.00,VWS V13.01,2013-01-06 05:06:00,
2013-01-05 23:11:00,10.4,-19.2,28.88,East,81,0.0,0.0,24,0.00,,,0.00,VWS V13.01,2013-01-06 05:11:00,
2013-01-05 23:16:00,10.9,-18.8,28.88,East,101,0.0,0.0,24,0.00,,,0.00,VWS V13.01,2013-01-06 05:16:00,
2013-01-05 23:21:00,10.9,-18.8,28.88,East,100,0.0,0.0,24,0.00,,,0.00,VWS V13.01,2013-01-06 05:21:00,
2013-01-05 23:26:00,11.1,-18.6,28.88,ESE,102,0.0,0.0,24,0.00,,,0.00,VWS V13.01,2013-01-06 05:26:00,
2013-01-05 23:31:00,10.6,-19.1,28.88,East,96,0.0,0.0,24,0.00,,,0.00,VWS V13.01,2013-01-06 05:31:00,
2013-01-05 23:36:00,11.1,-18.6,28.88,East,99,0.0,0.0,24,0.00,,,0.00,VWS V13.01,2013-01-06 05:36:00,
2013-01-05 23:41:00,11.3,-18.5,28.88,NE,52,0.0,0.0,24,0.00,,,0.00,VWS V13.01,2013-01-06 05:41:00,
2013-01-05 23:46:00,11.8,-18.0,28.88,ENE,65,0.0,3.6,24,0.00,,,0.00,VWS V13.01,2013-01-06 05:46:00,
2013-01-05 23:51:00,11.8,-18.0,28.88,NE,56,0.0,0.0,24,0.00,,,0.00,VWS V13.01,2013-01-06 05:51:00,
2013-01-05 23:56:00,11.8,-18.0,28.88,ENE,72,0.0,0.0,24,0.00,,,0.00,VWS V13.01,2013-01-06 05:56:00,